Torna al catalogo

ARIANE 2 R/B

AttivoHEO
NORAD 19920·ROCKET BODY·🇫🇷 France

Lanciato Apr 2, 1989 da Guiana Space Centre

Loading…

Prossimi Passaggi (prossime 24 ore)

TLE

AggiornatoSource: Space-Track

Epoca: Sep 14, 2026, 12:48 UTC

1 19920U 89027B   26257.53354816  .00004179  00000-0  13015-2 0  9997
2 19920   4.0129 265.1966 5253790 326.1712   9.2648  5.15830985584962

Traccia ARIANE 2 R/B in tempo reale con AllMySat

Download on the App Store